SOYUZ-MS 08 (43238 NORAD) Tracking and Keplerian Element Data

This shows tracking and keplerian element data for the satellite.

Feedback or suggestion? Click here.




ElementValue
Catalog43238
NameSOYUZ-MS 08
Epoch Orbit12324
Epoch Day198.57061359
Epoch Year2018
RAAN227.2688
Inclination51.6394
Eccentricity0.0003925
Argument of Perigee326.5855
Mean Anonmoly135.0965
Mean Motion15.53984061
Decay Rate1.399E-05
L11 43238U 18026A 18198.57061359 .00001399 00000-0 28512-4 0 9994
L22 43238 51.6394 227.2688 0003925 326.5855 135.0965 15.53984061123241

Live tracking and technical data element details for SOYUZ-MS 08 (NORAD 43238). SOYUZ-MS 08 can be tracked NOW for your location showing map with azimuth and elevation plus other details from your city location.

Track the satellite on the map from your city or location and see movement details for azimuth, elevation, latitude, longitude, range, height, and movement on the map or in text.







IsCatalogInMostPopularTable: catalog: 43238, numindb: 66
Update: records affected: 1



GetName: 43238 SOYUZ-MS 08

Hit Count: updated at: Thu, 19 Jul 2018 03:35:26 GMT